S56BOT-5 Weather Reports


Display with metric or nautical units.
time (UTC)temp
F
wind
direction
speed
MPH
gust
MPH
rain 1hr
in
rain 24hr
in
rain mn
in
humidity
%
barometer
mb
20260906044552 72 56 20.0 34.0 0.00 0.00 0.00 58 1022.0
20260906043046 72 46 20.0 35.0 0.00 0.00 0.00 58 1022.0
20260906041555 72 330 21.0 40.0 0.00 0.00 0.00 59 1021.9
20260906040130 72 330 20.0 35.0 0.00 0.00 0.00 58 1021.8
20260906034555 73 330 19.0 30.0 0.00 0.00 0.00 57 1021.8
20260906033101 73 330 21.0 36.0 0.00 0.00 0.00 56 1021.7
20260906031553 73 330 21.0 32.0 0.00 0.00 0.00 56 1021.6
20260906030052 73 330 19.0 29.0 0.00 0.00 0.00 56 1021.6
20260906024559 74 330 18.0 31.0 0.00 0.00 0.00 56 1021.7
20260906023044 74 46 17.0 31.0 0.00 0.00 0.00 55 1021.6
20260906021555 74 330 19.0 28.0 0.00 0.00 0.00 55 1021.5
20260906020052 74 330 18.0 29.0 0.00 0.00 0.00 54 1021.4
20260906014546 74 330 17.0 27.0 0.00 0.00 0.00 54 1021.5
20260906013100 74 44 16.0 28.0 0.00 0.00 0.00 55 1021.5
20260906011544 74 46 15.0 27.0 0.00 0.00 0.00 55 1021.6
20260906010057 74 45 14.0 26.0 0.00 0.00 0.00 54 1021.4
20260906004553 75 55 16.0 26.0 0.00 0.00 0.00 54 1021.3
20260906003044 75 54 15.0 24.0 0.00 0.00 0.00 54 1021.3
20260906001546 74 50 15.0 26.0 0.00 0.00 0.00 55 1021.3
20260906000057 74 330 13.0 25.0 0.00 0.00 0.00 56 1021.2
20260905234547 75 330 16.0 25.0 0.00 0.00 0.00 55 1021.1
20260905233100 75 48 15.0 25.0 0.00 0.00 0.00 55 1021.0
20260905231559 75 50 14.0 23.0 0.00 0.00 0.00 56 1021.1
20260905230105 75 330 16.0 24.0 0.00 0.00 0.00 55 1021.1
20260905224611 75 330 17.0 26.0 0.00 0.00 0.00 55 1021.1
20260905223111 75 39 15.0 27.0 0.00 0.00 0.00 55 1020.9
20260905221600 76 330 15.0 26.0 0.00 0.00 0.00 55 1020.8
20260905220055 76 330 14.0 26.0 0.00 0.00 0.00 54 1020.7
20260905214551 76 330 14.0 24.0 0.00 0.00 0.00 54 1020.7
20260905213102 76 54 13.0 23.0 0.00 0.00 0.00 54 1020.6
20260905211555 76 91 15.0 23.0 0.00 0.00 0.00 54 1020.6
20260905210059 76 118 14.0 27.0 0.00 0.00 0.00 54 1020.8
20260905204556 76 330 13.0 25.0 0.00 0.00 0.00 55 1020.5
20260905203050 76 330 13.0 26.0 0.00 0.00 0.00 55 1020.3
20260905201548 76 330 13.0 20.0 0.00 0.00 0.00 56 1020.2
20260905200058 77 330 14.0 24.0 0.00 0.00 0.00 56 1020.0
20260905194554 77 330 12.0 22.0 0.00 0.00 0.00 56 1020.1
20260905193044 76 53 12.0 19.0 0.00 0.00 0.00 56 1020.0
20260905191546 76 330 11.0 19.0 0.00 0.00 0.00 56 1019.9
20260905190052 76 87 11.0 16.0 0.00 0.00 0.00 55 1019.8
20260905184559 77 104 11.0 18.0 0.00 0.00 0.00 55 1019.6
20260905183047 77 330 11.0 19.0 0.00 0.00 0.00 54 1019.4
20260905181554 77 330 11.0 20.0 0.00 0.00 0.00 54 1019.2
20260905174546 78 330 11.0 23.0 0.00 0.00 0.00 52 1019.1
20260905173119 79 330 15.0 21.0 0.00 0.00 0.00 52 1018.8
20260905171555 80 330 10.0 16.0 0.00 0.00 0.00 52 1018.7
20260905170108 82 330 4.0 8.0 0.00 0.00 0.00 52 1018.7
20260905164606 84 158 3.0 7.0 0.00 0.00 0.00 52 1018.5
20260905163103 85 172 2.0 6.0 0.00 0.00 0.00 48 1018.2
20260905161606 86 182 1.0 5.0 0.00 0.00 0.00 52 1018.0
20260905160052 85 0 1.0 6.0 0.00 0.00 0.00 50 1017.9
20260905154610 85 146 2.0 5.0 0.00 0.00 0.00 50 1018.0
20260905153057 86 177 2.0 6.0 0.00 0.00 0.00 53 1017.9
20260905151550 86 197 1.0 6.0 0.00 0.00 0.00 54 1018.0
20260905150100 86 260 4.0 7.0 0.00 0.00 0.00 49 1017.9
20260905144555 86 204 3.0 11.0 0.00 0.00 0.00 49 1017.9
20260905143047 86 216 6.0 11.0 0.00 0.00 0.00 47 1017.8
20260905141555 86 204 7.0 11.0 0.00 0.00 0.00 46 1017.9
20260905140055 86 237 6.0 11.0 0.00 0.00 0.00 48 1017.9
20260905134555 86 212 4.0 9.0 0.00 0.00 0.00 57 1018.0
20260905133045 86 231 6.0 11.0 0.00 0.00 0.00 60 1018.0
20260905131544 85 206 4.0 11.0 0.00 0.00 0.00 63 1017.9
20260905130055 85 258 5.0 9.0 0.00 0.00 0.00 60 1018.1
20260905124552 85 216 5.0 10.0 0.00 0.00 0.00 57 1018.2
20260905123103 85 166 3.0 9.0 0.00 0.00 0.00 56 1018.3
20260905121552 84 262 5.0 10.0 0.00 0.00 0.00 55 1018.3
20260905120059 85 265 5.0 11.0 0.00 0.00 0.00 55 1018.4
20260905114604 85 232 4.0 10.0 0.00 0.00 0.00 52 1018.5
20260905113047 85 265 2.0 9.0 0.00 0.00 0.00 49 1018.5
20260905111545 85 227 3.0 7.0 0.00 0.00 0.00 48 1018.6
20260905110055 86 0 1.0 7.0 0.00 0.00 0.00 43 1018.5
20260905104553 83 260 4.0 8.0 0.00 0.00 0.00 44 1018.5
20260905103058 82 264 3.0 6.0 0.00 0.00 0.00 43 1018.6
20260905101559 85 247 1.0 7.0 0.00 0.00 0.00 40 1018.7
20260905100114 84 259 3.0 8.0 0.00 0.00 0.00 43 1018.7
20260905094549 84 242 4.0 9.0 0.00 0.00 0.00 39 1018.6
20260905093056 83 268 2.0 7.0 0.00 0.00 0.00 41 1018.7
20260905091557 83 143 3.0 8.0 0.00 0.00 0.00 39 1018.5
20260905090045 85 184 3.0 10.0 0.00 0.00 0.00 37 1018.3
20260905084559 85 149 2.0 7.0 0.00 0.00 0.00 37 1018.3
20260905083109 86 0 0.0 3.0 0.00 0.00 0.00 32 1018.3
20260905081553 86 0 1.0 4.0 0.00 0.00 0.00 34 1018.2
20260905080045 85 0 0.0 3.0 0.00 0.00 0.00 34 1018.1
20260905074548 83 125 1.0 5.0 0.00 0.00 0.00 35 1018.0
20260905073059 83 153 0.0 3.0 0.00 0.00 0.00 40 1017.9
20260905071555 80 115 1.0 4.0 0.00 0.00 0.00 41 1017.8
20260905070051 80 134 2.0 6.0 0.00 0.00 0.00 43 1017.7
20260905064612 79 144 2.0 6.0 0.00 0.00 0.00 47 1017.5
20260905063055 78 91 3.0 6.0 0.00 0.00 0.00 49 1017.5
20260905061558 76 120 3.0 9.0 0.00 0.00 0.00 48 1017.3
20260905060050 75 330 3.0 12.0 0.00 0.00 0.00 49 1017.3
20260905054708 74 124 4.0 9.0 0.00 0.00 0.00 51 1017.4
20260905053054 72 64 7.0 10.0 0.00 0.00 0.00 54 1017.6
20260905051554 72 112 6.0 9.0 0.00 0.00 0.00 53 1017.4
20260905050048 73 330 7.0 10.0 0.00 0.00 0.00 52 1017.5